This demonstration page uses our WeatherBlox Daily Observations layout. Learn more.

Left ArrowRight Arrow

38.80484, -77.04692

Hourly Observations for July 5, 2018

Temp ( °F °C ) Dew Point ( °F °C ) Humidity (%) Winds ( mph kmh ) Pressure ( in mb ) Visibility ( mi km ) Precip ( " mm )
12:52 am 00:52 Mostly Cloudy 83 28.3 74 23.3 74 74 SE 6 9 30.28 1025 10 16 0.00 0.00
1:37 am 01:37 Mostly Cloudy 82 27.8 74 23.3 77 77 SSE 7 11 30.27 1025 10 16 0.00 0.00
1:52 am 01:52 Mostly Cloudy 82 27.8 74 23.3 77 77 SSE 7 11 30.28 1025 10 16 0.00 0.00
2:11 am 02:11 Partly Cloudy 81 27.2 74 23.3 79 79 S 6 9 30.27 1025 10 16 0.00 0.00
2:52 am 02:52 Mostly Cloudy 81 27.2 75 23.9 82 82 SSE 6 9 30.28 1025 10 16 0.00 0.00
3:52 am 03:52 Cloudy 81 27.2 75 23.9 82 82 SSE 5 7 30.27 1025 10 16 0.00 0.00
4:07 am 04:07 Cloudy 81 27.2 75 23.9 82 82 SE 6 9 30.27 1025 10 16 0.00 0.00
4:34 am 04:34 Cloudy 81 27.2 75 23.9 82 82 S 5 7 30.27 1025 10 16 0.00 0.00
4:52 am 04:52 Cloudy 81 27.2 75 23.9 82 82 S 3 6 30.28 1025 10 16 0.00 0.00
5:52 am 05:52 Mostly Cloudy 80 26.7 74 23.3 82 82 S 3 6 30.28 1026 10 16 0.00 0.00
6:52 am 06:52 Partly Cloudy 81 27.2 75 23.9 82 82 S 3 6 30.29 1026 10 16 0.00 0.00
7:52 am 07:52 Mostly Cloudy 82 27.8 75 23.9 79 79 S 6 9 30.30 1026 10 16 0.00 0.00
8:52 am 08:52 Mostly Cloudy 83 28.3 75 23.9 77 77 S 7 11 30.30 1026 10 16 0.00 0.00
9:52 am 09:52 Partly Cloudy 86 30 75 23.9 70 70 S 10 17 30.29 1026 10 16 0.00 0.00
10:52 am 10:52 Mostly Cloudy 87 30.6 75 23.9 67 67 SSE 9 15 30.29 1026 10 16 0.00 0.00
11:52 am 11:52 Mostly Cloudy 88 31.1 73 22.8 61 61 SSE 8 13 30.28 1025 10 16 0.00 0.00
12:52 pm 12:52 Mostly Cloudy 90 32.2 73 22.8 58 58 S 10 17 30.27 1025 10 16 0.00 0.00
1:52 pm 13:52 Mostly Cloudy 91 32.8 74 23.3 57 57 S 6 9 30.25 1024 10 16 0.00 0.00
2:52 pm 14:52 Mostly Cloudy 90 32.2 73 22.8 58 58 S 10 17 30.23 1024 10 16 0.00 0.00
3:52 pm 15:52 Mostly Cloudy 90 32.2 72 22.2 56 56 S 9 15 30.21 1023 10 16 0.00 0.00
4:52 pm 16:52 Mostly Cloudy 90 32.2 70 21.1 52 52 S 12 19 30.19 1022 10 16 0.00 0.00
5:52 pm 17:52 Mostly Cloudy 90 32.2 73 22.8 58 58 SSE 13 20 30.19 1022 10 16 0.00 0.00
6:52 pm 18:52 Mostly Cloudy 88 31.1 73 22.8 61 61 S 10 17 30.17 1022 10 16 0.00 0.00
7:52 pm 19:52 Mostly Cloudy 87 30.6 73 22.8 63 63 S 10 17 30.16 1021 10 16 0.00 0.00
8:52 pm 20:52 Mostly Cloudy 85 29.4 74 23.3 70 70 S 10 17 30.18 1022 10 16 0.00 0.00
9:52 pm 21:52 Mostly Cloudy 85 29.4 74 23.3 70 70 S 10 17 30.19 1022 10 16 0.00 0.00
10:52 pm 22:52 Mostly Cloudy 84 28.9 74 23.3 72 72 S 9 15 30.18 1022 10 16 0.00 0.00
11:52 pm 23:52 Partly Cloudy 83 28.3 75 23.9 77 77 S 10 17 30.17 1022 10 16 0.00 0.00

Powered by AerisWeather